GFSNGP_prec_radar_201.txt.gz
Reflectivity
-16 -20 -20 -19 -20 -14 -3 -3 -19 -19 -8 -3 -6 -12 3 11 -13 -20 -20 -20 -20 -20 -20 -19 -14 -8 -12 -20 -20 -20 -20 -20 -20 -20 -20 -20 -20 -20 -16 -20 -20 -20 -20 -9
-20 -20 -20 -20 -20 -20 -8 4 -1 -19 13 22 9 2 6 1 -20 -20 -20 -20 -20 -20 -20 -20 -19 -19 -20 -20 -20 -20 -20 -20 -20 -20 -20 -20 -20 10 -20 -20 -16 -12 -6 -12
24 -6 -18 9 -17 -20 5 19 18 25 27 15 7 -12 -20 -20 -20 2 -1 -20 -20 -20 -20 -20 -20 -20 -20 -20 -20 -20 -20 -20 -20 -20 -20 -17 -20 -20 3 -2 -6 -1 -13 -6
24 23 19 30 -3 -17 -11 5 11 17 8 30 18 -13 -19 -7 -19 -7 -19 -20 -20 -20 -20 -20 -20 -20 -20 -20 -20 -20 -20 -20 -20 -20 -5 -19 -20 -19 -3 -9 -1 -8 -12 0
23 20 15 -10 -20 -20 -20 -20 4 -15 -9 24 15 -17 -20 -20 -20 -14 -1 -20 -20 -20 -20 -20 -20 -20 -20 -20 -20 -20 -20 -17 1 -1 6 -7 -20 -10 -20 -12 -17 -15 -8 -20
26 22 9 -20 -20 -20 -20 -20 -20 -20 -5 12 -0 -9 -20 -3 16 -2 -20 -20 -20 -20 -20 -20 -20 -20 -20 -20 -20 -20 -20 9 1 14 4 10 -20 -20 -20 -13 -11 6 -20 -20
26 23 11 -20 -20 -20 -20 -20 -20 -2 2 -20 21 15 17 10 -20 -20 -20 -20 -20 -20 -20 -20 -20 -20 -20 -20 -20 -20 -5 7 10 -20 -20 -0 -20 -20 -15 -15 3 -9 -20 -20
12 -1 -18 -20 -20 -20 -20 -20 -20 -20 -20 -19 -3 -17 -20 -20 -20 -20 -20 -20 -20 -20 -20 -20 -20 -20 -20 -20 -20 -12 0 12 -18 -20 -20 -5 -20 -20 -20 -19 -5 -10 -20 -16
4 -10 -20 -20 -20 -20 -20 2 1 -20 -20 -20 -20 -20 -20 -20 -20 -20 -20 -20 -20 -20 -20 -20 -20 -20 -20 -20 -20 13 8 -20 -20 -20 -20 -20 -20 -20 -19 -16 2 -2 -20 -20
9 0 -8 3 4 5 -1 -14 -7 -7 -20 -20 -20 -20 -20 -20 -20 -20 -20 -20 -20 -20 -20 -20 -20 -20 -20 -20 -18 -9 -8 -20 -20 -20 -17 -20 -15 8 8 -5 7 15 9 -20
7 8 14 20 3 -13 -17 -18 -20 -20 -20 -20 -20 -20 -20 -20 -20 -20 -20 -20 -20 -20 -20 -20 -20 -20 -20 -20 -20 -20 -20 -3 0 -20 -18 -20 -18 -12 10 22 15 15 12 -15
13 9 5 18 16 3 -19 -20 -20 -20 -20 -20 -20 -20 -20 -20 -20 -20 -20 -20 -20 -20 -20 -20 -20 -20 -20 -20 -20 -20 -20 -20 -13 -20 4 -20 -19 -8 25 23 29 30 19 6
19 9 19 -10 -20 -20 -20 -20 -20 -20 -20 -20 -20 -20 -20 -20 -20 -20 -20 -20 -20 -20 -20 -20 -20 -20 -20 -20 -20 -20 -20 -20 -18 -0 -6 11 16 10 15 12 18 19 20 13
-10 -13 -1 -15 -20 -16 -14 -19 -20 -20 -20 -20 -20 -20 -20 -20 -20 -20 -20 -20 -20 -20 -20 -20 -20 -20 -20 -20 -20 -20 -20 6 -18 -20 -20 -1 -11 1 4 -3 4 -7 2 11
-6 -19 3 4 3 -2 -15 -20 -20 -20 -20 -20 -20 -20 -20 -20 -20 -20 -20 -20 -20 -20 -20 -20 -20 -20 -20 -20 -20 -20 -20 -20 -20 -20 -20 -20 -18 -20 -20 -20 -18 4 -5 -4
3 3 4 -5 -18 -20 -20 -20 -20 -20 -20 -20 -20 -20 -20 -20 -20 -20 -20 -20 -20 -20 -7 -10 -20 -20 -20 -20 -20 -20 -20 -20 -20 -20 -20 -20 -20 -20 -20 -20 -20 -20 -20 -4
4 -14 -20 -20 -20 -20 -20 -20 -20 -20 -20 -20 -20 -20 -20 -20 -20 -20 -20 -20 -18 9 -8 -20 -20 -20 -20 -20 -20 -20 -20 -20 -6 -20 -20 -20 -20 -20 -20 -20 -20 -20 -20 -20
-20 -20 -20 -20 -20 -20 -20 -20 -20 -20 -20 -20 -20 -20 -20 -20 -4 -19 -19 2 10 3 -16 -20 -20 -20 -20 -20 -20 -20 -20 -20 -20 -20 -20 -20 -20 -20 -20 -20 -20 -20 -20 -20
-20 -20 -20 -20 -20 -20 -20 -20 -20 -20 -20 -20 -19 -15 -20 -20 -20 -20 -7 -8 4 -10 -12 -20 8 -2 -20 -20 -20 -20 -20 -20 -20 -20 -20 -20 -16 -20 -20 -20 -20 -20 -20 -20
-20 -20 -20 -20 -20 -20 -20 -20 -20 -17 6 -20 -20 -20 -20 -20 -20 -20 -17 -10 6 5 -19 -20 -20 -20 -20 -11 -20 -20 -20 -20 -20 -20 -20 -20 -20 -20 -20 -20 -20 -20 -20 -20
-20 -20 -20 -20 -20 -20 -20 -20 -20 -20 -20 -20 -20 -20 -17 -20 -20 -20 -17 -15 -8 -18 -20 -10 -20 -20 -20 -20 -20 -20 -20 -20 -20 -20 -20 -20 -20 -20 -20 -20 -20 -20 -20 -20
-20 -20 -20 -20 -20 -20 -20 -20 -20 -20 -20 -20 -20 -20 -20 -20 -18 -18 -20 -20 -20 3 -20 -20 -20 -0 -15 -20 -20 -20 -20 -20 -20 -20 -20 -20 -20 -20 -20 -14 -11 -20 -20 -20
-20 -20 -20 -15 -20 -20 -20 -20 -20 -20 -20 -20 -20 -20 -20 -20 -20 -20 -20 -14 -17 -9 -20 -20 -5 8 -14 -20 -20 -19 -20 -20 -20 -20 -20 -20 -20 -20 -18 -5 13 15 4 -20
-19 -20 -20 -20 -20 -20 -20 -20 -20 -20 -20 -20 -20 -20 -20 -20 -20 -20 -20 -0 -0 -19 -5 -5 2 4 7 -20 -20 -20 -20 -20 -20 -20 -20 -20 -20 -20 -20 -19 -19 -20 -20 -20
-20 -20 -20 -20 -20 -20 -20 -20 -20 -20 -20 -20 -20 -20 -20 -20 -20 -20 -20 -20 -3 3 -20 9 10 8 -13 -20 -20 -20 -20 -20 -20 -20 -20 -20 -20 -20 -20 -20 -20 -20 -20 -20
-20 -20 -20 -20 -20 -20 -20 -20 -20 -20 -20 -20 -20 -20 -20 -20 -20 -17 -20 -7 -20 3 -20 -19 -20 -16 -20 -20 -20 -20 -20 -17 -16 -19 -13 -20 -20 -20 -20 -20 -20 -20 -20 -20
-20 -16 -20 -20 -20 -20 -20 -20 -20 -20 -20 -20 -20 -20 -20 -20 -15 -8 5 -20 -20 -20 -20 -20 -19 -19 -20 -20 -20 -20 -20 -20 -20 -20 -20 -20 -20 -20 -20 -20 -20 -20 -20 -20

GFSNGP_prec_radar_204.txt.gz
Reflectivity
13 -20 -5 -6 -9 -4 4 -7 -3 -16 -20 -20 -20 -20 -20 -20 -20 -20 -20 -20 -17 -20 -20 -20 -20 -20 -20 -20 -20 -20 -20 -20 -20 -20 -20 -20 -20 -20 -20 -20 -20 -20 -20 -20
10 -20 -11 -6 -20 -20 -20 -20 -20 -20 -20 -20 -20 -20 -20 -20 -20 -20 -17 1 -20 -20 -20 -20 -20 -20 -20 -20 -20 -20 -20 -20 -20 -20 -20 -20 -20 -20 -20 -20 -20 -20 -20 -20
32 -8 11 19 2 -20 -20 -20 -20 -20 -20 -20 -12 -11 1 13 27 24 -9 -5 -13 -12 -17 -20 -20 -20 -20 -20 -20 -20 -20 -20 -20 -20 -20 -20 -20 -20 -20 -20 -19 -12 -11 -8
29 20 23 34 -2 -17 -8 2 3 -14 -20 -20 -3 19 26 14 -18 -9 4 -6 8 3 -20 -20 -20 -20 -20 -20 -20 -20 -20 -20 -20 -20 -20 -20 -20 -20 -20 -20 -14 -5 -7 -18
17 15 32 14 -18 1 9 -3 6 10 4 21 25 27 26 -5 -8 11 16 18 13 -13 -20 -20 -20 -20 -20 -20 -20 -20 -20 -20 -20 -20 -20 -20 -20 -20 -18 -19 3 -20 -20 -20
27 17 27 -1 -17 -11 10 26 -13 2 8 -11 8 21 2 14 15 6 17 6 -15 -19 3 -16 -20 -20 -20 -20 -20 -20 -20 -20 -20 -20 -20 -20 -4 -20 -20 -0 -20 -20 -20 -20
17 27 15 -20 -20 -12 11 6 -3 22 27 21 0 -20 3 -6 17 20 2 13 15 -11 -10 -20 -20 -20 -20 -20 -20 -20 -18 -18 -20 -20 -14 -19 0 -20 -6 -20 -20 -20 -20 -20
17 18 12 -18 -20 -15 -12 3 1 13 10 6 -12 -20 -20 -20 -18 20 24 -1 -10 -20 -20 -20 -20 -20 -20 -20 -20 -20 -20 -20 -20 -8 -6 6 -17 -1 -15 -20 -20 -20 -20 -20
6 -2 -15 -20 4 5 -20 -20 -20 -16 -1 -0 -7 -16 -20 -20 2 2 0 -19 -20 -20 -20 -20 -20 -20 -20 -20 -20 6 -20 -15 -8 -2 -20 -20 3 8 4 -20 -20 -20 -20 -20
-1 -10 -20 -19 4 14 -3 -16 -16 -16 -20 -20 -20 -20 -20 -0 -20 -20 -20 -20 -20 -20 -20 -20 -20 -20 -20 -20 -20 -9 -20 -1 -20 -4 -20 -20 -20 8 -20 -19 -0 -20 -20 -20
22 13 -0 -11 -13 -18 4 -20 -20 -20 -20 -20 -20 -20 -20 -20 -20 -20 -20 -20 -20 -20 -20 -20 -20 -20 -20 -20 -20 -20 -14 -13 -20 -20 -20 -20 -20 -20 -18 10 5 -20 -20 -20
3 -17 -18 2 9 10 -3 -11 -3 -4 -20 -20 -20 -20 -20 -20 -20 -20 -20 -20 -20 -20 -20 -20 -20 -20 -20 -12 -20 -20 -20 -15 -16 -20 -20 -20 -20 2 5 -4 -8 6 11 -19
-20 -20 -11 4 -3 9 10 -9 -20 -13 -8 -14 -20 -20 -20 -20 -20 -20 -20 -20 -20 -20 -20 -20 -20 -20 -20 -20 -20 -20 -20 -20 -20 -5 -20 -20 -20 -20 -14 -20 -0 12 12 -11
-20 -20 -17 16 5 -6 -17 -20 1 1 -19 -20 -20 -20 -20 -20 -20 -20 -20 -20 -20 -20 -20 -20 -20 -20 -20 -20 -20 -20 -20 6 -20 -20 -20 -20 -20 -20 -16 -20 -20 -20 -20 -20
-20 -2 11 3 13 12 14 5 -16 -20 -20 -20 -20 -20 -20 -20 -20 -20 -20 -20 -20 -20 -20 -20 -20 -20 -20 -20 -20 -20 -20 -20 -20 -20 -20 -20 -20 -20 -20 -20 -20 -20 -17 -12
-20 -20 -20 -10 3 5 -12 -20 -20 -20 -20 -20 -20 -20 -20 -20 -20 -20 -20 -20 -20 -20 -20 -20 -20 -20 -20 -20 -20 -20 -20 -20 -20 -20 -20 -20 -20 -20 -20 -20 -20 -20 -20 -20
-20 -20 -20 -19 -15 -10 -19 -20 -20 -20 -20 -20 -20 -20 -20 -20 -20 -20 -20 -20 -20 -20 -20 -20 -20 -20 -20 -20 -20 -20 -13 -20 -20 -20 -20 -20 -20 -20 -20 -20 -20 -20 -20 -20
1 -2 -4 -8 -20 -20 -20 -20 -18 -20 -20 -20 -20 -20 -20 -20 -20 -20 -20 -20 -20 -5 -5 -15 -20 -20 -20 -20 -20 -20 -20 -20 -20 -20 -20 -20 -20 -20 -20 -20 -20 -20 -20 -20
-18 -16 -20 -20 -20 -9 -10 -16 -20 -20 -20 -20 -20 -20 -20 -20 -14 -15 -20 -20 -19 -19 -16 -16 -20 -20 -20 -7 -10 -20 -20 -20 -20 -20 -20 -20 -17 -20 -20 -20 -20 -20 -20 -20
-15 -19 -20 -20 -20 -20 -20 -20 -20 -20 -20 -20 -20 -20 -20 -20 -20 -19 -10 -20 -20 -20 -20 -20 -20 -20 -20 -6 5 -20 -20 -20 -20 -20 -20 -20 -20 -20 -20 -20 -20 -20 -20 -20
-19 -20 -20 -20 -20 -20 -20 -20 -20 -18 -3 -20 -20 -20 -20 -20 -20 -20 -20 -20 -20 -19 -19 -13 -20 -20 -20 -3 -9 -20 -20 -20 -20 -20 -20 -20 -20 -20 -20 -20 -20 -20 -20 -20
-20 -20 -20 -20 -20 -20 -20 -20 -19 -17 -20 -20 -20 -20 -20 -20 -20 -19 -20 -20 -20 -20 -20 -20 -20 3 -11 6 -20 -20 -20 -20 -20 -20 -20 -20 -20 -20 -20 -20 -20 -20 -20 -20
-20 -20 -20 -20 -20 -20 -20 -20 -5 -14 -20 -20 -20 -20 -20 -20 -20 -20 -20 -20 -20 -14 -19 -20 0 -6 0 -20 -20 -20 -20 -20 -20 -20 -20 -20 -20 -20 -20 -20 -20 -20 -14 -10
-20 -20 -20 -20 -20 -20 -20 -20 -20 -20 -20 -20 -20 -20 -20 -20 -20 -20 -20 -13 9 -2 -20 -7 -0 5 7 -20 -20 -20 -20 -20 -20 -20 -20 -20 -20 -20 -20 -20 -20 -20 -20 -19
-20 -20 -20 -20 -20 -20 -20 -20 -20 -20 -20 -20 -20 -20 -20 -20 -20 -20 -20 -18 -3 -20 -20 8 9 10 6 -20 -19 -20 -20 -20 -20 -20 -20 -20 -20 -20 -20 -20 -20 -20 -20 -20
-20 -20 -20 -20 -20 -20 -20 -20 -20 -20 -20 -20 -20 -20 -20 -20 -20 -20 -19 -7 -19 2 -20 -18 -19 -15 -20 -20 -20 -20 -20 -20 -20 -17 -10 -20 -20 -20 -20 -20 -20 -20 -20 -20
-20 4 -20 -20 -20 -20 -20 -20 -20 -20 -20 -20 -20 -20 -20 -20 -19 -18 4 -20 -20 -20 -20 -20 -17 0 -20 -19 -20 -20 -20 -20 -20 -20 -20 -20 -20 -20 -20 -20 -20 -20 -20 -20

GFSNGP_prec_radar_207.txt.gz
Reflectivity
-20 -20 -20 -20 -5 10 22 11 9 -20 -20 -20 -20 -20 -20 -20 -20 -20 -20 -20 -20 -20 -20 4 -13 -20 -20 -20 -20 -20 -20 -20 -20 -20 -20 -20 -20 -20 -20 -19 -13 5 8 9
-20 -20 -20 -11 7 10 5 6 -2 -20 -20 -20 -20 -20 -20 -20 -20 -20 -20 -20 -20 -10 -18 -20 -13 -20 -20 -20 -20 -20 -20 -20 -20 -20 -20 -20 -20 -3 -20 -20 -20 11 -8 -17
20 -13 4 15 24 5 10 -19 -16 2 -20 -16 -17 -15 -20 -20 -20 -20 -20 -15 10 20 11 5 -14 -20 -20 -20 -20 -20 -20 -20 -20 -20 -20 -20 -20 1 -20 -13 2 6 -6 -15
17 -1 10 28 7 -14 -20 -20 -20 -20 -20 -20 -20 -20 -4 -20 -20 -20 0 15 8 13 6 -7 -18 -20 -20 -20 -20 -20 -20 -20 -20 -20 -20 -20 -20 -20 -18 -20 4 -20 -20 -20
29 25 21 -17 -20 -10 3 -17 -9 2 -7 -2 -12 6 8 -20 -16 17 28 26 11 24 8 1 -20 -10 -20 -20 -20 -20 -20 -20 -20 -20 -20 -20 -20 -20 -20 -20 -20 -20 -5 -20
8 7 16 -17 -20 -17 12 26 -20 -20 -8 15 14 15 -17 -5 21 30 32 29 -1 -16 -4 -20 8 -14 -14 -20 -20 -20 -20 -20 -20 -20 -20 -20 -15 -20 -20 -19 -20 -4 -20 -20
5 15 25 -12 -20 -20 17 11 1 24 6 18 16 -7 8 34 36 25 16 17 15 8 -12 5 9 -17 -20 -20 -20 -20 -20 -20 -20 -20 -20 -20 -20 -20 -20 -20 -20 -20 -20 -20
31 16 -0 -17 -20 -20 -3 20 11 6 9 14 7 -16 -11 7 10 4 10 7 -7 -17 -1 12 -19 -20 -20 -20 -20 -20 -20 -20 -20 -20 -20 -20 -18 -20 -20 -15 -20 -20 -20 -20
28 18 -11 -20 -20 -6 14 11 0 -11 -20 -1 3 -20 3 -12 -15 -20 -20 -16 -0 22 6 -20 -20 -20 -20 -20 -20 -18 -20 -20 -20 -9 -20 -20 -20 -20 -20 -18 -20 -20 -20 -13
20 13 -17 -20 -20 -18 9 1 -18 -18 -20 -20 -9 -6 -18 -20 -2 -15 4 -1 23 5 -18 -20 -20 -20 -20 -20 -20 -20 -20 -20 -20 -18 -17 -19 -20 -20 -3 1 -17 -20 -20 -1
-17 -20 -20 -20 -20 -18 -6 -20 -18 -20 -19 -3 -7 -20 -20 -20 -14 22 30 10 -17 -20 -20 -20 -20 -20 -20 -18 -20 -20 -20 -20 -20 -20 -20 -9 -20 2 -20 -20 -7 -7 -13 -7
26 13 22 21 21 5 -20 11 9 -20 -20 -3 -20 -20 -19 -8 14 -8 -20 -20 -20 -20 -20 -20 -20 -20 -20 -20 -20 -20 -8 -20 -9 -20 -20 -17 -10 2 1 -12 1 6 -1 -13
-20 1 20 15 9 -13 -14 -19 -20 -20 -20 -20 -20 -20 -20 -20 -20 -20 -20 -20 -20 -20 -20 -20 -20 -20 -20 -20 -20 -20 -20 -20 -12 -20 -9 -8 -20 -3 -4 -10 -1 6 -2 -7
-20 -20 -17 -15 3 -4 -20 -14 -16 10 -18 -20 -20 -20 -20 -20 -20 -20 -20 -20 -20 -20 -20 -20 -20 -20 -20 -20 -20 -20 -20 -20 -19 -16 -20 -20 -20 -20 -20 -7 -20 -20 4 -12
-20 -20 -20 -20 -20 -20 7 15 -0 -17 -12 -20 -20 -20 -20 -20 -20 -20 -20 -20 -20 -20 -20 -20 -20 -20 -20 -20 -20 -20 -20 -20 -20 -20 -20 -20 -20 -20 -20 -20 -12 -2 -10 -20
-16 -20 -20 -20 -20 -5 -15 -17 -20 -20 -19 -20 -20 -20 -20 -20 -20 -20 -20 -20 -20 -20 -20 -20 -20 -20 -20 -20 -20 -20 -20 -7 -20 -20 -20 -20 -20 -20 -20 -20 -20 -20 -5 -18
-20 -20 -20 -18 -11 -3 -19 -10 -19 -8 3 3 -5 -20 -20 -20 -20 -20 -20 -20 -20 -20 -20 -20 -20 -20 -20 -20 -20 -20 -17 -18 -20 -20 -20 -20 -20 -20 -20 -20 -8 -3 -3 -20
10 -5 2 5 7 11 12 8 -8 1 -1 -20 -20 -20 -20 -20 -20 -20 -20 -20 -20 -20 -20 -20 -11 -20 -20 -20 -20 -20 -17 -13 -20 -20 -20 -17 -20 -20 -20 -20 -20 -20 -4 -20
-20 -17 -1 -15 -11 1 -6 -1 -8 -20 -20 -20 -20 -20 -20 -20 -20 -20 -20 -20 -20 -20 -15 -10 -18 -20 -20 -12 -12 -20 -17 -19 -20 -20 -20 1 -19 -20 -20 -20 -4 -2 -11 -20
-18 -2 -9 -18 -20 -4 -0 1 -9 -20 -20 -20 -20 -20 -20 -20 -20 -20 -20 -20 -20 -9 -19 -20 -20 -20 -20 -11 1 -20 -15 -20 -20 -20 -9 -20 -20 -20 -20 -20 -20 -20 -16 -18
-20 -20 -14 -15 -17 -19 -19 -20 -20 -20 -20 -20 -20 -20 -20 -17 9 -7 -3 -18 -14 -16 -20 -20 -20 -20 -17 -4 -20 -20 -14 -20 -20 -20 -20 -20 -20 -1 -2 -20 -20 -20 -20 -20
-20 -16 -17 -17 -18 -16 -20 -20 -20 -20 -20 -20 -20 -20 -20 1 -16 -6 -20 -20 -20 -20 -20 -20 -20 -5 -20 -20 -20 -20 -20 -20 -20 -20 -20 -20 -20 -20 -20 -20 -20 -20 -20 -20
-20 -20 -20 -20 -20 -20 -20 -20 -17 -20 -20 -20 -20 -20 -20 -20 -20 -20 -19 -12 -20 -20 -20 -14 -18 -19 -20 -20 -20 -20 -20 -20 -20 -20 -20 -20 -20 -3 -2 -4 -11 -5 -5 -3
-20 -20 -20 -20 -20 -20 -20 -20 -20 -20 -20 -20 -20 -20 -20 -20 -18 -9 -20 -20 -17 -16 -20 -20 -20 -20 -20 -20 -20 -20 -20 -20 -20 -20 -20 -20 -20 -20 -20 -20 -19 -19 -20 -20
-20 -20 -20 -20 -20 -20 -20 -20 -20 -20 -20 -20 -20 -20 -20 -20 -20 -20 -20 -18 -20 -20 -20 -20 -20 -20 -20 -20 -20 -20 -20 -20 -20 -20 -20 -20 -20 -20 -20 -20 -20 -20 -20 -20
-20 -20 -20 -20 -20 -20 -20 -20 -20 -20 -20 -20 -19 -20 -20 -20 -20 -20 -20 -20 -20 -20 -20 -20 -20 -20 -20 -20 -20 -20 -20 -20 -20 -0 -16 -14 -20 -20 -20 -20 -20 -20 -20 -20
-20 2 -20 -20 -20 -20 -20 -20 -20 -20 -3 -20 -20 -19 -20 -20 -20 -20 -20 -20 -20 -20 -20 -20 -19 -2 -20 -18 -19 -20 -20 -20 -0 -20 -20 -20 -20 -9 -20 -20 -20 -20 -20 -20

GFSNGP_prec_radar_210.txt.gz
Reflectivity
-19 -20 -20 8 -20 -20 16 -20 5 -20 -20 -20 -20 -20 -20 -20 -20 -20 -20 -20 -20 -20 -20 -20 -20 -20 -20 -20 -20 -16 -20 -20 -20 -20 -20 -20 -20 -20 -20 -20 -20 -7 -17 -1
16 -20 -20 -10 5 -14 -20 -20 11 -20 -20 -20 -20 -20 -20 -20 -20 -20 -20 -20 -6 -20 -20 -20 -20 -20 -20 -20 4 -6 -20 -20 -20 -20 -20 -20 -20 -20 -20 -8 -20 -3 -17 1
20 -20 -16 21 -9 -20 -20 -20 -20 8 -20 -20 -20 -20 -20 -20 -20 -20 -20 -11 -2 -19 -20 -20 -20 -16 -17 -20 -17 -20 -20 -10 -6 -20 11 -7 -20 -20 -20 -6 -1 -1 -20 -9
21 6 14 13 -20 -20 -13 -20 -20 -20 -20 -20 -20 -20 -20 -20 -20 -20 -20 -20 -20 -20 -20 -20 3 4 -11 -15 -20 -2 -20 -20 -15 -20 11 12 -0 -11 -5 -1 -4 0 -1 1
13 14 8 -20 -20 -20 -9 -20 -20 -20 -20 -20 -1 -20 -20 -15 -20 -20 -20 -20 -20 -20 -20 10 11 13 1 -20 -20 -19 -20 -20 -20 -20 3 11 -8 -5 -2 -2 -3 -3 -3 -15
4 9 15 -20 -20 -19 19 16 0 -19 -20 -20 -3 15 -1 -20 -20 -20 -15 -5 -13 -10 11 12 17 -17 -20 -20 -20 -20 -20 -20 -20 -20 -20 -20 -0 -3 10 -2 -6 -19 -20 -20
-8 -12 13 -20 -20 -5 18 23 -10 9 -16 3 1 -20 8 12 8 18 13 15 17 8 19 15 22 -15 -20 -17 -8 -20 -20 -20 -20 -19 -12 -20 4 1 0 -0 -8 -2 -9 -6
13 16 3 26 -20 -12 -14 4 -8 7 7 12 -13 -7 19 15 7 21 18 25 8 29 27 12 2 -20 -5 -9 -11 -20 -11 -5 -20 -14 -12 -5 3 8 6 6 -10 -20 -20 -12
34 37 8 13 16 -12 15 25 26 11 8 14 13 -1 -3 9 -14 2 23 15 15 29 17 -0 -20 5 -18 -20 -20 -20 -20 -7 6 8 11 12 12 12 3 10 -16 -20 -20 -19
14 28 39 37 21 21 16 26 11 3 -20 -4 10 13 -2 -20 -20 -3 13 18 14 11 -5 -19 -1 -20 -20 -20 -20 -20 -17 -0 10 -3 13 14 -18 0 4 0 -18 -20 -20 -20
17 8 11 19 27 27 20 21 10 -20 -20 -20 -20 -20 -10 -20 -20 -19 -20 -5 6 9 15 15 -12 -6 -14 -20 -20 2 -12 -6 -1 -1 -20 -1 -7 -6 -4 -1 -11 -20 -20 -9
21 8 -6 17 -5 3 22 -4 -0 -20 -20 -20 -20 -20 -20 -20 -20 -14 -20 -20 -0 24 -12 -20 -20 -20 -15 -19 -20 -20 -20 -2 0 -4 -20 -19 -18 -1 -12 -10 5 -20 -20 -4
-16 -10 -13 9 17 1 8 7 -19 -17 -19 -20 -20 -20 -20 -20 -20 -20 -5 17 -15 -20 -20 -20 -20 -20 -20 -20 -20 -20 -20 -14 -2 -7 -6 -20 -20 5 2 1 -4 6 -14 -20
-20 -20 -20 -3 5 -20 -20 10 -16 -20 -20 -20 -20 -20 -20 -19 -17 -20 -7 10 -1 -20 -20 -20 -20 -20 -20 -20 -20 -20 -20 -16 -10 -16 -20 -20 -20 -20 -1 -2 2 -7 -15 -20
-20 -8 -20 -20 -6 -20 -12 0 12 -1 -18 -19 -20 -20 -20 -20 -20 -20 -9 -14 -19 -20 -20 -20 -20 -20 -20 -20 -20 -14 -12 -3 1 -20 -19 -8 -20 -20 -4 -4 -20 -20 -17 -17
-20 -20 -19 -20 -20 -20 -20 -20 -18 -20 -20 -20 -20 -20 -20 -20 -20 -20 -20 -20 -20 -20 -20 -20 -20 -20 -20 -12 -9 -3 -10 -20 -2 -16 -15 -20 -20 -20 3 -12 -20 -20 -7 -20
-20 -20 -20 -20 -20 -20 -20 -20 -20 -20 -20 -20 -20 -20 -20 -20 -20 -20 -20 -20 -20 -20 -20 -20 -20 -20 -20 -20 -20 -1 -1 -10 -20 -18 -17 -12 -20 -20 -20 -20 -20 -20 3 -12
-20 -12 -19 -19 -12 -20 -20 -20 -17 -20 -20 -19 -20 -20 -20 -20 -19 -20 -20 -20 -20 -20 -20 -12 -20 -20 -20 -20 -20 1 0 -15 -3 -20 -20 -17 -20 -20 -20 -13 -12 -15 -15 -5
23 6 -1 9 10 2 -7 -20 -20 -10 4 -11 -20 -18 8 8 -12 -20 -20 -20 -20 -20 -20 -20 -20 -20 -20 -20 -20 -3 2 -1 -5 -10 -14 0 -12 -20 -20 -20 -20 -20 -16 -20
8 -10 2 -10 -20 -10 0 -13 -5 -2 -16 -8 -7 -20 -20 -20 -20 -20 -20 -20 -20 -20 -20 -20 -20 -8 -3 -20 -14 3 2 1 -11 0 -20 -20 1 -19 -18 4 -17 -20 -20 -20
-20 -10 -7 -10 -13 -10 -14 -15 -4 -2 -2 -20 -20 -19 -20 -20 -20 -20 -20 -20 -20 -13 -17 -12 -1 1 1 -6 -19 5 5 8 5 -0 -20 -18 -2 -20 -12 1 -19 -1 -5 -20
-20 -20 -20 -20 -18 -2 -1 -7 -4 -5 -20 -20 -20 -20 -20 -20 -20 -17 -15 -20 1 11 -12 -12 -3 -14 -20 -19 6 8 6 5 -20 -12 -20 -10 -16 -20 -5 1 -20 -20 -7 -20
-20 -20 -18 -20 -20 -14 -11 -10 -20 -20 -6 -20 -20 -20 -20 -20 -20 -20 -12 21 -2 -6 3 4 -17 -20 -20 6 7 8 4 -20 -20 -20 -8 -20 -4 -19 -20 -18 -16 -12 -20 -20
-3 -18 -20 -19 -20 -20 -20 -20 -20 -20 -7 -19 -5 -16 -20 -10 10 11 -16 -18 -17 -10 3 -5 -13 -20 -20 6 5 5 7 -3 -11 -3 -17 10 1 -18 -20 -20 -18 3 -20 -7
-20 -20 -20 -20 -20 -20 -20 -20 -20 -20 -20 -3 -2 6 6 6 -17 -2 2 -2 -7 -10 -20 -17 -20 -20 1 6 5 4 6 -20 -20 -20 -20 -20 -20 -18 -16 -20 -20 -20 -20 -14
-20 -20 -20 -20 -20 -20 -20 -20 -20 -20 2 4 3 4 6 -3 -17 -6 -1 -20 2 -13 2 2 2 4 4 -1 2 3 1 -10 -15 -10 -5 -20 -20 -20 -20 -20 -20 -18 -20 -14
0 -13 -20 -18 -20 -17 -20 -8 -20 -20 0 3 2 2 -3 1 -6 -6 -5 5 6 5 2 6 6 -4 1 5 7 10 9 8 3 -20 -13 -5 -20 -10 -7 -15 -20 -20 -20 -6

GFSNGP_prec_radar_216.txt.gz
Reflectivity
5 -1 -3 -10 -20 -20 17 1 20 30 19 -17 -20 -20 -20 -20 -20 -20 -20 -20 -20 -20 -20 -20 -20 -20 -20 -20 -20 -20 -20 -20 -20 -20 -20 -20 -20 -20 -20 -20 8 12 -20 -20
-12 -20 -13 6 -20 -20 -20 10 -20 -18 5 -20 -20 -20 -20 -20 -20 -20 -20 -20 -20 -20 -20 -20 -20 -20 -20 -20 -20 -20 -20 -20 -20 -20 -20 -20 -20 -20 -20 -16 14 -6 -20 -20
1 -20 3 -2 -20 -20 -20 -20 -20 -20 -20 -20 -20 -20 -20 -20 -20 -20 -20 -17 -18 -20 -20 -20 -20 -20 -20 -20 -20 -20 -20 -20 -20 -20 -20 -20 -20 -20 -19 22 -2 -20 -20 -12
10 5 17 -11 -20 -20 -20 -20 -20 -20 -20 -20 -20 -20 -20 -20 -20 -20 -20 -9 -20 -20 -20 -20 -20 -20 -20 -20 -20 -20 -20 -20 -19 -20 -20 -20 -20 -5 14 14 -8 -13 4 -9
12 -20 -20 -20 -20 -20 -20 -20 -20 -20 27 -9 -20 -20 -20 -20 -20 -20 -20 10 14 -20 -20 -20 -20 -20 -20 -20 -20 -20 -20 -20 -20 -20 -20 -15 -20 11 21 -11 2 6 -1 -13
14 9 -20 -20 -20 -20 -3 17 -0 -15 -19 -20 -20 -20 -20 -20 -20 -20 -5 -20 6 -20 -20 -20 -20 -20 -20 -20 -20 -20 -20 -20 -20 -20 -20 -9 7 26 -20 0 7 1 0 -9
17 11 -5 -20 -19 7 17 12 -20 -20 -20 -20 -20 -20 -20 -20 -20 -20 -20 -20 -20 -20 -20 -20 -20 -20 -20 -20 -20 -20 -20 -20 -20 -20 4 22 27 -11 6 11 4 6 -7 -20
14 19 19 -20 7 15 11 -4 -20 -20 -20 23 -7 -19 -20 -20 -20 -20 -20 -20 -20 -15 12 2 -20 31 24 21 -13 -16 -4 -20 -16 9 28 21 5 16 12 5 6 1 -17 -14
22 18 -18 -20 -5 7 5 -18 -20 -20 16 8 37 22 -6 -20 -20 -20 -20 -20 -20 -20 -20 -19 -20 8 11 -4 25 33 8 17 16 31 28 12 18 13 12 3 -0 -20 -20 -18
22 -20 -20 -20 -20 -5 -1 5 -9 17 16 21 23 25 -19 -20 -20 -20 -20 -19 26 18 -19 -20 -20 -20 -5 13 8 12 27 33 27 26 16 19 15 10 -0 6 3 -4 -20 -19
30 5 8 28 -20 -20 -15 7 -5 10 -3 4 3 -0 -13 -4 -20 -20 -20 18 34 33 32 27 23 23 22 34 32 30 34 30 23 15 25 16 9 7 -7 -20 -9 -20 -20 -20
5 20 27 1 -0 -9 5 -1 -16 -20 -20 -19 -20 -20 5 -20 -20 -20 -10 5 19 28 34 36 36 38 38 41 35 31 28 22 23 23 13 8 8 0 -6 -12 -15 -0 -14 -20
30 16 -1 30 29 -19 -17 -20 -15 -20 -16 11 29 -18 -19 4 10 15 7 1 11 28 32 38 37 37 34 33 30 27 16 17 17 15 13 10 -2 -19 -20 -15 -20 -12 -20 -20
24 15 -20 6 5 -3 1 11 -20 12 30 36 38 13 -20 13 10 4 -10 -10 -0 23 34 37 33 32 30 28 16 16 15 14 -1 -14 -20 -20 -20 -20 -20 -17 -7 -6 -20 -20
14 11 8 34 29 9 -20 -18 -8 22 39 30 25 21 24 22 7 -12 -14 -20 -3 24 28 31 31 29 21 17 17 11 -7 -5 -19 -20 -19 -8 -20 -20 -20 -8 -20 -20 -20 1
-17 32 19 30 14 -6 -12 6 12 11 17 28 35 30 29 16 -14 -14 -19 -11 7 20 25 25 12 -3 -12 7 -1 -17 -20 -20 -20 -20 -20 -19 -20 -20 -20 -20 -20 -3 -15 -4
10 -5 -19 -5 -19 3 -2 3 -12 1 0 -20 -20 -3 4 -7 -7 -12 -20 -20 -20 -20 -20 -20 -15 -20 -20 -20 -20 -20 -20 -20 -20 -20 -20 -5 -20 -18 1 -4 -20 -20 -20 -10
-20 -6 -20 4 -19 -20 -18 -7 -20 -20 -18 -13 -20 -20 -20 -20 -20 -20 -20 -20 -20 -20 -20 -20 -20 -20 -20 -20 -20 -20 -20 -20 -20 -16 -20 -20 -16 -15 -20 -20 -20 -18 -17 -8
-13 -20 -20 -20 -20 -20 -20 -20 -20 -20 -20 -20 -8 -17 -20 -20 -20 -20 -20 -20 -20 -20 -20 -20 -20 -20 -20 -20 -20 -20 -20 -20 -20 -11 -9 9 0 -16 -20 -20 -20 -20 -12 -18
-20 -14 -20 -20 -20 -20 -20 -20 -20 -20 -20 -15 -16 -20 -20 -20 -20 -20 -20 -20 -20 -20 -20 -20 -20 -20 -20 -11 2 -20 -19 -20 -20 -20 -12 -19 -20 -20 -18 5 -5 -0 -5 -20
23 5 22 8 -3 4 -18 -11 -6 -9 -16 -20 -20 -20 -20 -20 -20 -20 -20 -20 -20 -15 -20 -20 -19 -20 -20 -15 -10 -11 -6 -20 -20 -20 -20 -20 -9 -20 -20 -20 6 -5 -20 -20
14 14 26 30 30 21 11 -2 -20 -20 -20 -20 -20 -20 -20 -5 -20 -20 -20 -20 -20 -20 -20 -20 -20 -11 -20 -10 -19 -13 -20 -20 -20 -20 -20 -20 -20 -20 -20 -8 -20 -12 -20 -20
0 -7 8 22 19 19 27 20 8 -1 -8 -20 -20 -20 -20 -20 -20 -20 -18 -20 -20 -17 -20 -20 5 -1 -20 -7 -20 -20 -20 -20 -20 -20 -20 -20 -20 -20 0 -9 -20 -20 -5 -20
-18 -3 -20 -20 -16 -14 -1 4 3 -0 -5 -12 -19 -19 -20 -20 -12 -11 -10 -20 -19 -5 -5 -7 -20 -20 5 -18 -17 -17 -19 -20 -20 -20 -20 3 -20 -20 -20 -19 -19 -20 -18 -1
-18 -20 -20 -20 -20 -20 -20 -20 -20 -20 -8 -18 -20 -20 -20 -20 -13 -15 -20 -13 -6 1 -20 -20 -20 9 7 -6 -20 -20 -20 -20 -20 -20 -20 -20 -20 -20 -19 -16 -20 -20 -20 -20
-20 -20 -20 -20 -20 -20 -16 -20 -17 -11 -14 -8 -7 -6 -7 -13 -12 -10 -18 -3 -16 -0 -20 -20 -18 -12 -20 -20 -18 -20 -20 -17 -13 -9 -11 -19 -12 -20 -20 -20 -20 -15 -20 -20
-20 -15 -20 -20 -19 -16 -20 -20 -7 -12 -2 -16 -19 -6 -10 -15 -6 -4 -6 -19 -19 -14 -8 -11 -17 -13 -20 -16 -20 -20 -20 -20 -1 -20 -20 -20 -20 -20 -20 -20 -20 -20 -19 -20